Flag for U.S.A. Weather past 2 weeks in Odessa, Texas, U.S.A.

Now
90 °F

Sunny.


Feels Like: 88 °F
Forecast: 75 / 96 °F
Wind: 9 mph from South

Location: Odessa-Schlemeyer Field

Current Time: Jul 25, 2014 at 2:12:54 PM

Latest Report: Jul 25, 2014 at 12:53 PM


Visibility: 10 mi

Pressure: 29.93 "Hg

Humidity: 32%

Dew point: 56 °F

Location of OdessaLocation

Historic Weather in Odessa — Graph

°F

Odessa temperature yesterday

Maximum temperature yesterday: 98 °F (at 3:53 PM)
Minimum temperature yesterday: 74 °F (at 6:53 AM)
Average temperature yesterday: 87 °F

Past Weeks' High & Low Weather Summary

 TemperatureHumidityPressure
High99 °F (Jul 20, 5:53 PM)87% (Jul 19, 5:53 AM)30.18 "Hg (Jul 19, 5:53 AM)
Low67 °F (Jul 18, 6:53 AM)15% (Jul 24, 1:53 PM)29.73 "Hg (Jul 16, 6:53 PM)
Average82 °F52%29.93 "Hg
* Reported Jul 10 12:53 PM — Jul 25 12:53 PM, Odessa, Weather by CustomWeather, © 2014

Note: Actual official high and low records may vary slightly from our data, if they occured in-between our weather recording intervals... More about our weather records

Advertising

Odessa weather history for previous 24 hours

 ConditionsComfort  
Time TempWeatherWind HumidityBarometerVisibility
12:53 PM
Jul 25
90 °FSunny.9 mph32%29.93 "Hg10 mi
11:53 AM89 °FSunny.7 mph35%29.95 "Hg10 mi
10:53 AM85 °FSunny.N/A46%29.96 "Hg9 mi
9:53 AM82 °FSunny.13 mph51%29.96 "Hg9 mi
8:53 AM78 °FSunny.12 mph60%29.96 "Hg9 mi
7:53 AM75 °FClear.7 mph64%29.96 "Hg8 mi
6:53 AM74 °FClear.8 mph67%29.94 "Hg9 mi
5:53 AM75 °FClear.8 mph64%29.93 "Hg10 mi
4:53 AM76 °FClear.9 mph60%29.92 "Hg10 mi
3:53 AM77 °FClear.8 mph58%29.93 "Hg10 mi
2:53 AM79 °FClear.10 mph54%29.94 "Hg10 mi
1:53 AM80 °FClear.13 mph51%29.94 "Hg10 mi
12:53 AM82 °FClear.15 mph49%29.94 "Hg10 mi
11:53 PM
Jul 24
83 °FClear.13 mph48%29.94 "Hg10 mi
10:53 PM84 °FClear.14 mph46%30.09 "Hg10 mi
9:53 PM85 °FClear.14 mph48%30.06 "Hg10 mi
8:53 PM86 °FScattered clouds.N/A42%29.89 "Hg10 mi
7:53 PM96 °FSunny.12 mph23%29.86 "Hg10 mi
6:53 PM96 °FScattered clouds.14 mph22%29.87 "Hg10 mi
5:53 PM98 °FSunny.14 mph19%29.88 "Hg10 mi
4:53 PM98 °FSunny.13 mph19%29.90 "Hg10 mi
3:53 PM98 °FSunny.14 mph20%29.91 "Hg10 mi
2:53 PM96 °FSunny.9 mph19%29.93 "Hg10 mi
Weather by CustomWeather, © 2014

See weather overviewHow to use our weather pages